Other Surface Observations
Issued by NWS Tucson, AZ

Home | Current Version | Previous Version | Text Only | Print | Product List | Glossary On
Versions: 1 2 3 4 5 6 7 8 9 10 11 12 13 14 15 16 17 18 19 20 21 22 23 24 25 26 27 28 29 30 31 32 33 34 35 36 37 38 39 40 41 42 43 44 45 46 47 48 49 50
000
SXUS55 KTWC 252116
OSOTWC

WEATHER ROUNDUP FOR SOUTHEAST ARIZONA
NATIONAL WEATHER SERVICE TUCSON AZ
215 PM MST SAT OCT 25 2014

AZZ504>506-514-252215-
LOCATION       SKY/WX    TMP DP  RH WIND       PRES   REMARKS
TUCSON         MOSUNNY   93  46  19 SE6       30.05F
DAVIS-MONTHAN  SUNNY     93  48  21 S8G17     30.03F
CHILDRENS PARK N/A       91  44  20 SE4               PIMA CO DEQ
ALVERNON/22ND  N/A      N/A N/A N/A N/A               PIMA CO DEQ
CHERRY/GLENN   N/A      N/A N/A N/A N/A               PIMA CO DEQ
TANGERINE      N/A       91 N/A N/A SE6               PIMA CO DEQ
CONTL RANCH    N/A       93  47  21 SE6               PIMA CO DEQ
GRANT/1ST      N/A       92  44  19 SE2               PIMA CO DEQ
CRAYCROFT/22ND N/A      N/A N/A N/A N/A               PIMA CO DEQ
GOLFLINKS/KOLB N/A       91  46  21 E2                PIMA CO DEQ
AJO/12TH       N/A       93  45  19 SE1               PIMA CO DEQ
SAGUARO EAST   N/A      N/A N/A N/A N/A               PIMA CO DEQ
FAIRGROUNDS    N/A      N/A N/A N/A N/A               PIMA CO DEQ
SAGUARO        N/A       95  45  18 SW5               *SABINO CYN
SAN CARLOS     N/A       87  53  31 W3                *SAN CARLOS
GREEN VALLEY   N/A       91  46  21 S3                PIMA CO DEQ
HORSE CAMP CYN N/A       86  43  22 W5G12             *ARAVAIPA CYN
RINCON MTNS    N/A       71  44  38 SW3G10            *NR MANNING CAMP
$$

AZZ509>511-252215-
LOCATION       SKY/WX    TMP DP  RH WIND       PRES   REMARKS
SAFFORD        SUNNY     86  44  23 SW3       30.09F
STRAY HORSE    N/A       68  39  35 SW8G20            *
TRAIL CABIN    N/A       76  41  29 W4G10             *N OF GRANVILLE
BLACK HILLS    N/A       87  46  24 S2                *N OF FT THOMAS
DRY LAKE       N/A       72  37  28 SW5G10            *NATANES MTNS
NOON CREEK     N/A       81  43  26 NE5               *PINALENO MTNS
COLUMBINE      N/A       61  38  43 SW10G19           *PINALENO MTNS
GUTHRIE        N/A       76  40  27 SE4G13            *SW OF GUTHRIE
$$

AZZ502-503-513-252215-
LOCATION       SKY/WX    TMP DP  RH WIND       PRES   REMARKS
NOGALES        SUNNY     88  48  25 SW12G20   30.13F
SELLS          N/A       94  51  23 W5G12             *
SASABE         N/A       91  47  22 S11G22            *ALTAR VLY
HOPKINS        N/A       76  49  39 SW7G17            *SANTA RITA MTNS
CARR CYN       N/A       82  47  29 SW4G11            *W OF HEREFORD
$$

AZZ507-508-512-252215-
LOCATION       SKY/WX    TMP DP  RH WIND       PRES   REMARKS
SIERRA VISTA   MOSUNNY   86  45  23 W8        30.19F
DOUGLAS        SUNNY     87  44  22 N6        30.17F
EMPIRE MTNS    N/A       86  45  24 SW9G20            *LAS CIENEGAS NCA
MULESHOE RANCH N/A       86  43  22 W4G11             *PRESERVE
HEADQUARTERS   N/A       82  42  24 S2G14             *CHIRICAHUA MTNS
$$

.............................NOTES.............................
THIS IS AN AUTOMATED COLLECTIVE WITH MINIMAL QUALITY CONTROL.
PIMA CO DEQ SITES HAVE NONSTANDARD WIND SENSOR HEIGHTS.
PIMA CO DEQ SITES DO NOT REPORT WIND GUSTS.
* INDICATES WIND SENSORS LOCATED AT 20 FEET INSTEAD OF 33 FEET.
..............................KEY..............................
SKY/WX - SKY CONDITION/WEATHER
TMP    - TEMPERATURE IN FAHRENHEIT
DP     - DEWPOINT IN FAHRENHEIT
RH     - RELATIVE HUMIDITY IN PERCENT
WIND   - DIRECTION AND SPEED IN MILES PER HOUR (MPH)
VRB    - VARIABLE WIND DIRECTION
PRES   - MEAN SEA LEVEL PRESSURE IN INCHES OF MERCURY
         F - FALLING PRESSURE   R - RISING PRESSURE
         S - STEADY PRESSURE
VSB    - VISIBILITY IN MILES
HX     - HEAT INDEX IN FAHRENHEIT
WCI    - WIND CHILL INDEX IN FAHRENHEIT
N/A    - NOT AVAILABLE
AFB    - AIR FORCE BASE
         DAVIS-MONTHAN IS DAVIS-MONTHAN AIR FORCE BASE
CYN    - CANYON
MTNS   - MOUNTAINS
NCA    - NATIONAL CONSERVATION AREA
NR     - NEAR
VLY    - VALLEY
CONTL  - CONTINENTAL
PIMA CO DEQ - PIMA COUNTY DEPT OF ENVIRONMENTAL QUALITY



USA.gov is the U.S. government's official web portal to all federal, state and local government web resources and services.